TimeEDT,TemperatureF,Dew PointF,Humidity,Sea Level PressureIn,VisibilityMPH,Wind Direction,Wind SpeedMPH,Gust SpeedMPH,PrecipitationIn,Events,Conditions,WindDirDegrees,DateUTC
12:53 AM,75.9,66.0,71,29.96,10.0,SE,3.5,-,N/A,,Partly Cloudy,140,2013-06-02 04:53:00
1:53 AM,75.9,66.0,71,29.97,10.0,South,8.1,-,N/A,,Overcast,170,2013-06-02 05:53:00
2:53 AM,75.0,64.9,71,29.97,10.0,SSE,8.1,-,N/A,,Overcast,160,2013-06-02 06:53:00
3:53 AM,73.0,64.9,76,29.96,10.0,South,8.1,-,N/A,,Mostly Cloudy,170,2013-06-02 07:53:00
4:53 AM,72.0,64.9,78,29.96,10.0,South,8.1,-,N/A,,Mostly Cloudy,170,2013-06-02 08:53:00
5:28 AM,71.6,66.2,83,30.00,10.0,South,6.9,-,N/A,,Overcast,170,2013-06-02 09:28:00
5:53 AM,72.0,66.0,81,29.96,10.0,South,6.9,-,N/A,,Overcast,170,2013-06-02 09:53:00
6:53 AM,71.1,66.0,84,29.96,10.0,South,4.6,-,N/A,,Mostly Cloudy,180,2013-06-02 10:53:00
7:53 AM,71.1,66.0,84,29.96,10.0,SSE,4.6,-,N/A,,Mostly Cloudy,160,2013-06-02 11:53:00
8:00 AM,71.6,66.2,83,30.01,10.0,South,5.8,-,N/A,,Overcast,180,2013-06-02 12:00:00
8:12 AM,71.6,66.2,83,30.00,10.0,South,5.8,-,N/A,,Overcast,170,2013-06-02 12:12:00
8:22 AM,71.6,66.2,83,30.01,10.0,South,6.9,-,N/A,,Overcast,190,2013-06-02 12:22:00
8:53 AM,73.0,66.9,81,29.96,10.0,Variable,5.8,-,N/A,,Overcast,0,2013-06-02 12:53:00
9:53 AM,75.9,68.0,76,29.95,10.0,South,4.6,-,N/A,,Overcast,190,2013-06-02 13:53:00
10:53 AM,79.0,69.1,72,29.94,10.0,South,4.6,-,N/A,,Mostly Cloudy,180,2013-06-02 14:53:00
11:53 AM,80.1,68.0,67,29.94,10.0,SSW,6.9,-,N/A,,Overcast,210,2013-06-02 15:53:00
12:53 PM,82.0,66.9,60,29.93,10.0,SSW,8.1,-,N/A,,Overcast,210,2013-06-02 16:53:00
1:53 PM,84.9,68.0,57,29.89,10.0,Variable,6.9,-,N/A,,Mostly Cloudy,0,2013-06-02 17:53:00
2:53 PM,82.9,66.0,56,29.88,10.0,SW,5.8,-,N/A,,Mostly Cloudy,220,2013-06-02 18:53:00
3:48 PM,77.0,68.0,74,29.98,1.2,WSW,27.6,38.0,0.13,Rain,Light Rain,250,2013-06-02 19:48:00
3:50 PM,73.4,68.0,83,29.97,0.5,West,21.9,38.0,0.25,Rain,Heavy Rain,260,2013-06-02 19:50:00
3:53 PM,70.0,64.9,84,29.91,0.5,NW,20.7,38.0,0.34,Rain,Heavy Rain,320,2013-06-02 19:53:00
4:00 PM,69.8,62.6,78,29.94,0.8,West,4.6,31.1,0.02,Rain,Rain,270,2013-06-02 20:00:00
4:07 PM,69.8,64.4,83,29.94,6.0,Calm,Calm,-,0.03,Rain,Light Rain,0,2013-06-02 20:07:00
4:53 PM,73.9,68.0,82,29.87,6.0,South,5.8,-,0.07,,Haze,190,2013-06-02 20:53:00
5:53 PM,77.0,70.0,79,29.86,10.0,Variable,3.5,-,N/A,,Clear,0,2013-06-02 21:53:00
6:53 PM,75.0,69.1,82,29.87,10.0,Variable,3.5,-,N/A,Thunderstorm,Mostly Cloudy,0,2013-06-02 22:53:00
7:39 PM,69.8,66.2,88,29.95,2.5,NNW,11.5,-,0.09,Rain-Thunderstorm,Light Rain,330,2013-06-02 23:39:00
7:43 PM,69.8,66.2,88,29.96,0.8,NNW,9.2,-,0.27,Rain-Thunderstorm,Heavy Rain,340,2013-06-02 23:43:00
7:46 PM,68.0,64.4,88,29.95,0.5,WSW,10.4,20.7,0.39,Fog-Rain-Thunderstorm,Heavy Thunderstorms and Rain,250,2013-06-02 23:46:00
7:53 PM,66.9,66.0,97,29.91,0.2,ESE,3.5,20.7,0.58,Fog-Rain-Thunderstorm,Heavy Thunderstorms and Rain,120,2013-06-02 23:53:00
8:02 PM,66.2,66.2,100,29.95,1.0,Calm,Calm,-,0.08,Rain-Thunderstorm,Heavy Thunderstorms and Rain,0,2013-06-03 00:02:00
8:24 PM,68.0,66.2,94,29.94,1.0,South,8.1,-,0.54,Rain-Thunderstorm,Heavy Thunderstorms and Rain,180,2013-06-03 00:24:00
8:31 PM,68.0,66.2,94,29.93,1.0,SSE,4.6,-,0.61,Rain-Thunderstorm,Heavy Thunderstorms and Rain,160,2013-06-03 00:31:00
8:37 PM,68.0,66.2,94,29.93,3.0,South,4.6,-,0.61,,Mostly Cloudy,190,2013-06-03 00:37:00
8:53 PM,69.1,66.9,93,29.90,3.0,NNE,5.8,-,0.61,,Partly Cloudy,30,2013-06-03 00:53:00
9:53 PM,68.0,66.9,96,29.92,8.0,SE,3.5,-,N/A,,Clear,140,2013-06-03 01:53:00
10:53 PM,66.9,66.0,97,29.91,8.0,Calm,Calm,-,N/A,,Partly Cloudy,0,2013-06-03 02:53:00
11:53 PM,66.9,66.0,97,29.90,9.0,Calm,Calm,-,N/A,,Partly Cloudy,0,2013-06-03 03:53:00